Location: Albuquerque Trailhead
(34.7934°N, 106.3736°W)
Time: 00:32:44
(UTC+00:00)

FALCON 9 DEB - Pass Details

Date: 20 June 2021
Orbit: 358 x 373 km, 53.0° (Epoch: 01 August)

Event Time Altitude Azimuth Distance (km) Brightness Sun altitude
Rises 03:45:38 0° 239° (WSW) 2,232 6.9 -14.7°
Reaches altitude 10° 03:47:44 10° 247° (WSW) 1,386 6.0 -15.0°
Maximum altitude 03:50:41 40° 319° (NW) 569 4.3 -15.4°
Drops below altitude 10° 03:53:40 10° 31° (NNE) 1,396 5.8 -15.9°
Sets 03:55:48 0° 39° (NE) 2,251 6.8 -16.2°
